Weather WX

World > North America > United States > Minnesota

Svea, Minnesota Regional Weather

Lat: 45.00N, Lon: 95.02W
Wx Zone: MNZ057
Feedback

Svea, MN Regional Weather

Expires:201906251800;;062090
ASUS43 KMPX 251710
RWRMN 
WEATHER ROUNDUP FOR MINNESOTA
NATIONAL WEATHER SERVICE TWIN CITIES/CHANHASSEN MN
1200 PM CDT TUE JUN 25 2019


NOTE: "FAIR" INDICATES FEW OR NO CLOUDS BELOW 12,000 FEET WITH NO
SIGNIFICANT WEATHER AND/OR OBSTRUCTIONS TO VISIBILITY. N/A MEANS
CURRENT SKY AND/OR WEATHER CONDITIONS ARE NOT AVAILABLE.


MNZ029>031-032-039>041-046>048-054>057-064-251800-
   West Central Minnesota   
  
CITY           SKY/WX    TMP DP  RH WIND       PRES   REMARKS
FERGUS FALLS   FAIR      72  59  64 W16       29.77R                  
ALEXANDRIA     FAIR      74  55  51 W16G23    29.79R                  
WADENA         FAIR      70  57  64 W13G23    29.75R                  
GLENWOOD       FAIR      72  57  60 NW15G26   29.79R                  
APPLETON         N/A     77 N/A N/A W18       29.80R                  
BENSON         MOSUNNY   75  55  50 NW14G24   29.80S                  
ORTONVILLE     MOSUNNY   73  55  53 W13       29.81R                  
MADISON        SUNNY     79  52  38 W20G28    29.81S                  
WILLMAR        FAIR      73  54  49 W17G24    29.82S                  
$$

SKY/WX - Weather  TMP - Temperature  DP - Dew Point  RH - Relative Humidity
WIND - Wind Direction/Speed PRES - Barometric Pressure VSB - Visibility
WCI - Wind Chill Index E13G22 Wind - East Wind 13 mph/Gusts of 22 mph